CFREE CYHZ-KBED

Flight info

Callsign CFREE
Flight time 1h 51m
Altitude 28000
Route LWM
Aircraft TBM8/L-SDFGRWY/S

Departure

Time 2026-05-04 23:44
Airport Halifax / Stanfield International Airport (CYHZ)

Arrival

Time 2026-05-05 01:35
Airport Laurence G Hanscom Field (KBED)
Time Latitude Longitude Altitude Speed Heading
2026-05-04 23:18 44.87625 -63.52132 454 ft 0 kts 163°
2026-05-04 23:37 44.87611 -63.52151 454 ft 5 kts 246°
2026-05-04 23:37 44.87601 -63.52180 454 ft 3 kts 238°
2026-05-04 23:37 44.87573 -63.52204 455 ft 8 kts 178°
2026-05-04 23:37 44.87554 -63.52192 455 ft 0 kts 123°
2026-05-04 23:38 44.87543 -63.52167 455 ft 4 kts 122°
2026-05-04 23:38 44.87534 -63.52147 455 ft 1 kts 121°
2026-05-04 23:38 44.87531 -63.52106 454 ft 11 kts 53°
2026-05-04 23:38 44.87624 -63.52019 454 ft 21 kts 38°
2026-05-04 23:39 44.87742 -63.51896 454 ft 20 kts 35°
2026-05-04 23:39 44.87843 -63.51793 454 ft 17 kts 36°
2026-05-04 23:39 44.87934 -63.51701 454 ft 15 kts 36°
2026-05-04 23:39 44.88013 -63.51624 453 ft 13 kts 35°
2026-05-04 23:40 44.88083 -63.51557 453 ft 11 kts 38°
2026-05-04 23:40 44.88144 -63.51494 453 ft 11 kts 34°
2026-05-04 23:40 44.88202 -63.51439 453 ft 10 kts 34°
2026-05-04 23:40 44.88267 -63.51375 453 ft 14 kts 34°
2026-05-04 23:41 44.88372 -63.51267 452 ft 18 kts 40°
2026-05-04 23:41 44.88383 -63.51148 452 ft 11 kts 124°
2026-05-04 23:41 44.88362 -63.51106 453 ft 0 kts 125°
2026-05-04 23:43 44.88348 -63.51076 452 ft 10 kts 124°
2026-05-04 23:43 44.88260 -63.51055 452 ft 26 kts 216°
2026-05-04 23:43 44.87973 -63.51338 453 ft 75 kts 215°
2026-05-04 23:43 44.87443 -63.51833 566 ft 100 kts 217°
2026-05-04 23:44 44.86813 -63.52347 887 ft 105 kts 214°
2026-05-04 23:44 44.86182 -63.52902 1326 ft 106 kts 216°
2026-05-04 23:44 44.85519 -63.53408 1778 ft 113 kts 213°
2026-05-04 23:44 44.84768 -63.53923 2059 ft 126 kts 218°
2026-05-04 23:45 44.83965 -63.54525 2373 ft 132 kts 224°
2026-05-04 23:45 44.83533 -63.55577 2690 ft 128 kts 261°
2026-05-04 23:45 44.83230 -63.56788 3019 ft 135 kts 249°
2026-05-04 23:45 44.82807 -63.57964 3400 ft 135 kts 248°
2026-05-04 23:46 44.82378 -63.59124 3785 ft 135 kts 248°
2026-05-04 23:46 44.81935 -63.60298 4139 ft 135 kts 248°
2026-05-04 23:46 44.81492 -63.61459 4552 ft 134 kts 248°
2026-05-04 23:46 44.81051 -63.62612 4894 ft 134 kts 248°
2026-05-04 23:47 44.80609 -63.63770 5259 ft 135 kts 249°
2026-05-04 23:47 44.80162 -63.64939 5618 ft 136 kts 248°
2026-05-04 23:47 44.79715 -63.66111 5989 ft 136 kts 249°
2026-05-04 23:47 44.79262 -63.67290 6320 ft 138 kts 248°
2026-05-04 23:48 44.78804 -63.68486 6653 ft 139 kts 248°
2026-05-04 23:48 44.78349 -63.69675 6994 ft 140 kts 248°
2026-05-04 23:48 44.77877 -63.70903 7327 ft 141 kts 248°
2026-05-04 23:48 44.77416 -63.72105 7661 ft 142 kts 248°
2026-05-04 23:49 44.76947 -63.73328 8003 ft 143 kts 248°
2026-05-04 23:49 44.76473 -63.74561 8337 ft 143 kts 248°
2026-05-04 23:49 44.75998 -63.75799 8685 ft 144 kts 248°
2026-05-04 23:49 44.75520 -63.77043 9019 ft 145 kts 248°
2026-05-04 23:50 44.75037 -63.78297 9357 ft 146 kts 248°
2026-05-04 23:50 44.74551 -63.79561 9674 ft 147 kts 248°
2026-05-04 23:50 44.74063 -63.80828 9975 ft 148 kts 248°
2026-05-04 23:50 44.73572 -63.82104 10288 ft 148 kts 248°
2026-05-04 23:51 44.73080 -63.83381 10604 ft 149 kts 248°
2026-05-04 23:51 44.72586 -63.84664 10923 ft 150 kts 248°
2026-05-04 23:51 44.72088 -63.85954 11224 ft 151 kts 248°
2026-05-04 23:51 44.71588 -63.87249 11500 ft 151 kts 248°
2026-05-04 23:52 44.71087 -63.88548 11822 ft 152 kts 248°
2026-05-04 23:52 44.70583 -63.89853 12147 ft 152 kts 248°
2026-05-04 23:52 44.70078 -63.91162 12452 ft 153 kts 248°
2026-05-04 23:52 44.69568 -63.92479 12755 ft 153 kts 248°
2026-05-04 23:53 44.69058 -63.93797 13059 ft 154 kts 248°
2026-05-04 23:53 44.68546 -63.95124 13382 ft 155 kts 248°
2026-05-04 23:53 44.68028 -63.96461 13675 ft 156 kts 248°
2026-05-04 23:53 44.67509 -63.97801 13951 ft 156 kts 249°
2026-05-04 23:54 44.66998 -63.99121 14232 ft 156 kts 249°
2026-05-04 23:54 44.66508 -64.00475 14511 ft 154 kts 253°
2026-05-04 23:54 44.66100 -64.01866 14787 ft 155 kts 253°
2026-05-04 23:54 44.65676 -64.03256 15072 ft 155 kts 253°
2026-05-04 23:55 44.65253 -64.04647 15369 ft 155 kts 253°
2026-05-04 23:55 44.64832 -64.06039 15649 ft 155 kts 253°
2026-05-04 23:55 44.63987 -64.08824 16194 ft 155 kts 253°
2026-05-04 23:56 44.63565 -64.10218 16470 ft 155 kts 253°
2026-05-04 23:56 44.63142 -64.11616 16747 ft 156 kts 253°
2026-05-04 23:56 44.62717 -64.13013 17021 ft 156 kts 253°
2026-05-04 23:56 44.62291 -64.14414 17297 ft 156 kts 253°
2026-05-04 23:57 44.61865 -64.15817 17595 ft 156 kts 253°
2026-05-04 23:57 44.61439 -64.17221 17877 ft 157 kts 253°
2026-05-04 23:57 44.61011 -64.18628 18140 ft 157 kts 253°
2026-05-04 23:57 44.60581 -64.20040 18365 ft 158 kts 254°
2026-05-04 23:58 44.60150 -64.21457 18575 ft 158 kts 254°
2026-05-04 23:58 44.59716 -64.22880 18798 ft 159 kts 254°
2026-05-04 23:58 44.59277 -64.24320 18951 ft 162 kts 254°
2026-05-04 23:58 44.58833 -64.25782 19174 ft 163 kts 254°
2026-05-04 23:59 44.58384 -64.27248 19410 ft 164 kts 254°
2026-05-04 23:59 44.57934 -64.28722 19635 ft 165 kts 254°
2026-05-04 23:59 44.57482 -64.30202 19856 ft 166 kts 255°
2026-05-04 23:59 44.57027 -64.31689 20061 ft 167 kts 255°
2026-05-05 00:00 44.56567 -64.33194 20253 ft 169 kts 255°
2026-05-05 00:00 44.56418 -64.33683 20320 ft 169 kts 256°
2026-05-05 00:00 44.55641 -64.36219 20705 ft 170 kts 256°
2026-05-05 00:00 44.55174 -64.37742 20923 ft 170 kts 256°
2026-05-05 00:01 44.54706 -64.39270 21135 ft 171 kts 256°
2026-05-05 00:01 44.54236 -64.40801 21351 ft 172 kts 256°
2026-05-05 00:01 44.53923 -64.41823 21493 ft 172 kts 256°
2026-05-05 00:01 44.53449 -64.43367 21711 ft 173 kts 256°
2026-05-05 00:02 44.52972 -64.44918 21914 ft 174 kts 256°
2026-05-05 00:02 44.52495 -64.46468 22147 ft 174 kts 257°
2026-05-05 00:02 44.52013 -64.48037 22348 ft 175 kts 257°
2026-05-05 00:02 44.51531 -64.49601 22560 ft 176 kts 257°
2026-05-05 00:03 44.51046 -64.51175 22777 ft 176 kts 257°
2026-05-05 00:03 44.50559 -64.52755 22984 ft 177 kts 257°
2026-05-05 00:03 44.50070 -64.54342 23195 ft 178 kts 257°
2026-05-05 00:03 44.49579 -64.55935 23396 ft 178 kts 257°
2026-05-05 00:04 44.49085 -64.57533 23556 ft 179 kts 257°
2026-05-05 00:04 44.48589 -64.59138 23722 ft 180 kts 257°
2026-05-05 00:04 44.48092 -64.60748 23887 ft 181 kts 257°
2026-05-05 00:04 44.47588 -64.62380 23982 ft 185 kts 257°
2026-05-05 00:05 44.47074 -64.64042 24109 ft 187 kts 257°
2026-05-05 00:05 44.46556 -64.65710 24277 ft 187 kts 257°
2026-05-05 00:05 44.46037 -64.67382 24439 ft 188 kts 257°
2026-05-05 00:05 44.45516 -64.69063 24598 ft 189 kts 257°
2026-05-05 00:06 44.44993 -64.70750 24762 ft 190 kts 257°
2026-05-05 00:06 44.44466 -64.72445 24924 ft 190 kts 257°
2026-05-05 00:06 44.43937 -64.74146 25077 ft 191 kts 257°
2026-05-05 00:06 44.43406 -64.75856 25237 ft 192 kts 257°
2026-05-05 00:07 44.42872 -64.77572 25401 ft 193 kts 257°
2026-05-05 00:07 44.42335 -64.79296 25559 ft 194 kts 257°
2026-05-05 00:07 44.41796 -64.81026 25709 ft 194 kts 257°
2026-05-05 00:07 44.41254 -64.82764 25862 ft 195 kts 257°
2026-05-05 00:08 44.40712 -64.84504 26015 ft 196 kts 257°
2026-05-05 00:08 44.40164 -64.86257 26166 ft 197 kts 257°
2026-05-05 00:08 44.39615 -64.88014 26314 ft 198 kts 257°
2026-05-05 00:08 44.39064 -64.89776 26463 ft 198 kts 257°
2026-05-05 00:09 44.38508 -64.91549 26613 ft 200 kts 258°
2026-05-05 00:09 44.37960 -64.93310 26753 ft 201 kts 259°
2026-05-05 00:09 44.37398 -64.95100 26897 ft 201 kts 259°
2026-05-05 00:09 44.36835 -64.96895 27034 ft 202 kts 259°
2026-05-05 00:10 44.36268 -64.98700 27178 ft 203 kts 259°
2026-05-05 00:10 44.35698 -65.00519 27191 ft 207 kts 259°
2026-05-05 00:10 44.35118 -65.02368 27313 ft 208 kts 259°
2026-05-05 00:10 44.34535 -65.04217 27478 ft 208 kts 259°
2026-05-05 00:11 44.33953 -65.06061 27644 ft 207 kts 259°
2026-05-05 00:11 44.33374 -65.07902 27810 ft 207 kts 259°
2026-05-05 00:11 44.32792 -65.09758 27846 ft 212 kts 259°
2026-05-05 00:11 44.32194 -65.11665 27850 ft 217 kts 259°
2026-05-05 00:12 44.31577 -65.13622 27852 ft 222 kts 258°
2026-05-05 00:12 44.30946 -65.15615 27857 ft 226 kts 258°
2026-05-05 00:12 44.30306 -65.17639 27858 ft 230 kts 258°
2026-05-05 00:12 44.29654 -65.19697 27863 ft 233 kts 258°
2026-05-05 00:13 44.28995 -65.21778 27864 ft 236 kts 258°
2026-05-05 00:13 44.28330 -65.23880 27864 ft 238 kts 258°
2026-05-05 00:13 44.27658 -65.25998 27866 ft 240 kts 258°
2026-05-05 00:13 44.26980 -65.28133 27867 ft 241 kts 258°
2026-05-05 00:14 44.26298 -65.30281 27866 ft 243 kts 258°
2026-05-05 00:14 44.25612 -65.32439 27872 ft 244 kts 258°
2026-05-05 00:14 44.24921 -65.34608 27867 ft 245 kts 257°
2026-05-05 00:14 44.24229 -65.36784 27869 ft 246 kts 257°
2026-05-05 00:15 44.23532 -65.38972 27853 ft 247 kts 257°
2026-05-05 00:15 44.22832 -65.41165 27852 ft 248 kts 257°
2026-05-05 00:15 44.22130 -65.43364 27863 ft 249 kts 257°
2026-05-05 00:15 44.21427 -65.45558 27862 ft 248 kts 257°
2026-05-05 00:16 44.20726 -65.47750 27860 ft 247 kts 258°
2026-05-05 00:16 44.20027 -65.49939 27866 ft 247 kts 258°
2026-05-05 00:16 44.19328 -65.52127 27864 ft 247 kts 258°
2026-05-05 00:16 44.18628 -65.54310 27864 ft 247 kts 258°
2026-05-05 00:17 44.17938 -65.56462 27860 ft 246 kts 258°
2026-05-05 00:17 44.17238 -65.58639 27860 ft 246 kts 258°
2026-05-05 00:17 44.16541 -65.60812 27861 ft 246 kts 258°
2026-05-05 00:17 44.15841 -65.62989 27860 ft 246 kts 258°
2026-05-05 00:18 44.15141 -65.65164 27863 ft 246 kts 258°
2026-05-05 00:18 44.14440 -65.67339 27868 ft 246 kts 258°
2026-05-05 00:18 44.13739 -65.69514 27867 ft 246 kts 258°
2026-05-05 00:18 44.13038 -65.71689 27865 ft 246 kts 258°
2026-05-05 00:19 44.12335 -65.73865 27859 ft 246 kts 258°
2026-05-05 00:19 44.11633 -65.76037 27859 ft 246 kts 258°
2026-05-05 00:19 44.10931 -65.78207 27858 ft 246 kts 258°
2026-05-05 00:19 44.10230 -65.80374 27860 ft 246 kts 258°
2026-05-05 00:20 44.09529 -65.82538 27864 ft 245 kts 258°
2026-05-05 00:20 44.08827 -65.84703 27865 ft 245 kts 258°
2026-05-05 00:20 44.08125 -65.86866 27867 ft 245 kts 258°
2026-05-05 00:20 44.07422 -65.89031 27868 ft 245 kts 258°
2026-05-05 00:21 44.06719 -65.91194 27870 ft 246 kts 258°
2026-05-05 00:21 44.06016 -65.93354 27870 ft 245 kts 258°
2026-05-05 00:21 44.05312 -65.95516 27866 ft 245 kts 258°
2026-05-05 00:21 44.04610 -65.97675 27870 ft 245 kts 258°
2026-05-05 00:22 44.03905 -65.99839 27869 ft 245 kts 258°
2026-05-05 00:22 44.03200 -66.01994 27871 ft 245 kts 258°
2026-05-05 00:22 44.02495 -66.04154 27872 ft 245 kts 258°
2026-05-05 00:22 44.01789 -66.06312 27870 ft 245 kts 258°
2026-05-05 00:23 44.01093 -66.08440 27870 ft 245 kts 258°
2026-05-05 00:23 44.00388 -66.10596 27871 ft 245 kts 258°
2026-05-05 00:23 43.99682 -66.12751 27872 ft 245 kts 258°
2026-05-05 00:23 43.98975 -66.14907 27871 ft 246 kts 258°
2026-05-05 00:24 43.98266 -66.17068 27868 ft 246 kts 257°
2026-05-05 00:24 43.97554 -66.19232 27870 ft 246 kts 258°
2026-05-05 00:24 43.96843 -66.21398 27868 ft 247 kts 258°
2026-05-05 00:24 43.96131 -66.23564 27872 ft 247 kts 257°
2026-05-05 00:25 43.95417 -66.25732 27872 ft 247 kts 257°
2026-05-05 00:25 43.94704 -66.27894 27876 ft 247 kts 257°
2026-05-05 00:25 43.93990 -66.30061 27870 ft 247 kts 257°
2026-05-05 00:25 43.93274 -66.32228 27871 ft 247 kts 257°
2026-05-05 00:26 43.92558 -66.34395 27873 ft 247 kts 257°
2026-05-05 00:26 43.91841 -66.36565 27875 ft 247 kts 257°
2026-05-05 00:26 43.91124 -66.38733 27867 ft 247 kts 257°
2026-05-05 00:26 43.90405 -66.40902 27869 ft 248 kts 257°
2026-05-05 00:27 43.89686 -66.43071 27866 ft 248 kts 257°
2026-05-05 00:27 43.88968 -66.45241 27866 ft 248 kts 257°
2026-05-05 00:27 43.88257 -66.47381 27830 ft 248 kts 257°
2026-05-05 00:27 43.87529 -66.49571 27863 ft 247 kts 257°
2026-05-05 00:28 43.86819 -66.51707 27866 ft 248 kts 257°
2026-05-05 00:28 43.86097 -66.53878 27865 ft 248 kts 257°
2026-05-05 00:28 43.85373 -66.56053 27870 ft 249 kts 257°
2026-05-05 00:28 43.84647 -66.58230 27868 ft 249 kts 257°
2026-05-05 00:29 43.83919 -66.60412 27866 ft 250 kts 256°
2026-05-05 00:29 43.83190 -66.62596 27868 ft 250 kts 256°
2026-05-05 00:29 43.82461 -66.64780 27869 ft 250 kts 256°
2026-05-05 00:29 43.81731 -66.66963 27869 ft 251 kts 256°
2026-05-05 00:30 43.80995 -66.69159 27871 ft 251 kts 256°
2026-05-05 00:30 43.80260 -66.71353 27871 ft 251 kts 256°
2026-05-05 00:30 43.79524 -66.73550 27872 ft 252 kts 256°
2026-05-05 00:30 43.78787 -66.75749 27872 ft 252 kts 256°
2026-05-05 00:31 43.78048 -66.77950 27873 ft 252 kts 256°
2026-05-05 00:31 43.77309 -66.80148 27873 ft 252 kts 256°
2026-05-05 00:31 43.76568 -66.82351 27873 ft 253 kts 256°
2026-05-05 00:31 43.75827 -66.84553 27874 ft 252 kts 256°
2026-05-05 00:32 43.75086 -66.86752 27879 ft 252 kts 256°
2026-05-05 00:32 43.74343 -66.88956 27879 ft 253 kts 256°
2026-05-05 00:32 43.73598 -66.91164 27879 ft 254 kts 256°
2026-05-05 00:32 43.72852 -66.93376 27879 ft 254 kts 255°
2026-05-05 00:33 43.72103 -66.95592 27877 ft 255 kts 255°
2026-05-05 00:33 43.71353 -66.97810 27878 ft 255 kts 255°
2026-05-05 00:33 43.70684 -67.00048 27878 ft 247 kts 264°
2026-05-05 00:33 43.70467 -67.02352 27878 ft 240 kts 274°
2026-05-05 00:34 43.70332 -67.04656 27880 ft 241 kts 273°
2026-05-05 00:34 43.70181 -67.06958 27881 ft 241 kts 273°
2026-05-05 00:34 43.70036 -67.09269 27882 ft 241 kts 273°
2026-05-05 00:34 43.69893 -67.11579 27882 ft 241 kts 273°
2026-05-05 00:35 43.69749 -67.13891 27881 ft 242 kts 273°
2026-05-05 00:35 43.69603 -67.16202 27881 ft 242 kts 273°
2026-05-05 00:35 43.69457 -67.18517 27881 ft 242 kts 273°
2026-05-05 00:35 43.69310 -67.20835 27882 ft 242 kts 273°
2026-05-05 00:36 43.69163 -67.23153 27880 ft 242 kts 273°
2026-05-05 00:36 43.69015 -67.25473 27880 ft 242 kts 273°
2026-05-05 00:36 43.68867 -67.27793 27880 ft 243 kts 272°
2026-05-05 00:36 43.68718 -67.30115 27880 ft 243 kts 273°
2026-05-05 00:37 43.68568 -67.32438 27879 ft 243 kts 272°
2026-05-05 00:37 43.68418 -67.34761 27879 ft 243 kts 272°
2026-05-05 00:37 43.68268 -67.37085 27879 ft 243 kts 272°
2026-05-05 00:37 43.68117 -67.39410 27851 ft 243 kts 272°
2026-05-05 00:38 43.67967 -67.41707 27877 ft 243 kts 272°
2026-05-05 00:38 43.67814 -67.44048 27876 ft 243 kts 272°
2026-05-05 00:38 43.67662 -67.46373 27876 ft 243 kts 272°
2026-05-05 00:38 43.67509 -67.48702 27876 ft 244 kts 272°
2026-05-05 00:39 43.67355 -67.51034 27875 ft 244 kts 272°
2026-05-05 00:39 43.67200 -67.53367 27875 ft 244 kts 272°
2026-05-05 00:39 43.67046 -67.55701 27876 ft 244 kts 272°
2026-05-05 00:39 43.66890 -67.58034 27875 ft 244 kts 272°
2026-05-05 00:40 43.66734 -67.60368 27876 ft 244 kts 272°
2026-05-05 00:40 43.66578 -67.62704 27879 ft 244 kts 272°
2026-05-05 00:40 43.66421 -67.65037 27879 ft 245 kts 272°
2026-05-05 00:40 43.66263 -67.67376 27879 ft 245 kts 272°
2026-05-05 00:41 43.66105 -67.69716 27880 ft 245 kts 272°
2026-05-05 00:41 43.65946 -67.72057 27874 ft 245 kts 272°
2026-05-05 00:41 43.65789 -67.74367 27874 ft 245 kts 272°
2026-05-05 00:41 43.65629 -67.76709 27874 ft 245 kts 271°
2026-05-05 00:42 43.65468 -67.79052 27874 ft 245 kts 272°
2026-05-05 00:42 43.65308 -67.81396 27872 ft 245 kts 272°
2026-05-05 00:42 43.65146 -67.83741 27880 ft 245 kts 271°
2026-05-05 00:42 43.64984 -67.86086 27880 ft 245 kts 271°
2026-05-05 00:43 43.64822 -67.88432 27880 ft 245 kts 271°
2026-05-05 00:43 43.64659 -67.90778 27874 ft 246 kts 271°
2026-05-05 00:43 43.64495 -67.93120 27874 ft 246 kts 271°
2026-05-05 00:43 43.64331 -67.95466 27874 ft 246 kts 271°
2026-05-05 00:44 43.64167 -67.97815 27877 ft 245 kts 271°
2026-05-05 00:44 43.64002 -68.00158 27876 ft 245 kts 271°
2026-05-05 00:44 43.63837 -68.02499 27876 ft 245 kts 271°
2026-05-05 00:44 43.63671 -68.04836 27876 ft 245 kts 271°
2026-05-05 00:45 43.63506 -68.07177 27873 ft 245 kts 271°
2026-05-05 00:45 43.63339 -68.09519 27873 ft 245 kts 271°
2026-05-05 00:45 43.63172 -68.11859 27853 ft 245 kts 271°
2026-05-05 00:45 43.63005 -68.14193 27877 ft 244 kts 271°
2026-05-05 00:46 43.62837 -68.16530 27870 ft 245 kts 271°
2026-05-05 00:46 43.62668 -68.18868 27872 ft 245 kts 271°
2026-05-05 00:46 43.62500 -68.21207 27875 ft 245 kts 271°
2026-05-05 00:46 43.62331 -68.23549 27873 ft 245 kts 271°
2026-05-05 00:47 43.62160 -68.25895 27868 ft 246 kts 271°
2026-05-05 00:47 43.61989 -68.28236 27870 ft 246 kts 271°
2026-05-05 00:47 43.61818 -68.30584 27869 ft 246 kts 271°
2026-05-05 00:47 43.61646 -68.32934 27869 ft 246 kts 271°
2026-05-05 00:48 43.61473 -68.35285 27870 ft 246 kts 271°
2026-05-05 00:48 43.61299 -68.37636 27870 ft 246 kts 271°
2026-05-05 00:48 43.61126 -68.39989 27869 ft 246 kts 271°
2026-05-05 00:48 43.60952 -68.42341 27869 ft 247 kts 271°
2026-05-05 00:49 43.60777 -68.44694 27869 ft 247 kts 271°
2026-05-05 00:49 43.60602 -68.47044 27869 ft 247 kts 271°
2026-05-05 00:49 43.60428 -68.49372 27869 ft 247 kts 271°
2026-05-05 00:49 43.60252 -68.51730 27869 ft 247 kts 271°
2026-05-05 00:50 43.60075 -68.54088 27869 ft 247 kts 271°
2026-05-05 00:50 43.59897 -68.56448 27867 ft 247 kts 271°
2026-05-05 00:50 43.59718 -68.58805 27867 ft 248 kts 271°
2026-05-05 00:50 43.59540 -68.61169 27867 ft 248 kts 271°
2026-05-05 00:51 43.59360 -68.63537 27866 ft 248 kts 271°
2026-05-05 00:51 43.59238 -68.65132 27866 ft 248 kts 271°
2026-05-05 00:51 43.59060 -68.67471 27866 ft 248 kts 271°
2026-05-05 00:51 43.58878 -68.69838 27866 ft 248 kts 271°
2026-05-05 00:52 43.58697 -68.72201 27860 ft 248 kts 271°
2026-05-05 00:52 43.58515 -68.74571 27861 ft 248 kts 271°
2026-05-05 00:52 43.58332 -68.76943 27861 ft 249 kts 271°
2026-05-05 00:52 43.58148 -68.79314 27861 ft 249 kts 271°
2026-05-05 00:53 43.57964 -68.81683 27863 ft 248 kts 271°
2026-05-05 00:53 43.57780 -68.84052 27859 ft 248 kts 270°
2026-05-05 00:53 43.57596 -68.86411 27866 ft 248 kts 270°
2026-05-05 00:53 43.57411 -68.88780 27860 ft 249 kts 270°
2026-05-05 00:54 43.57224 -68.91153 27860 ft 249 kts 270°
2026-05-05 00:54 43.57038 -68.93527 27860 ft 249 kts 270°
2026-05-05 00:54 43.56851 -68.95904 27861 ft 249 kts 270°
2026-05-05 00:54 43.56662 -68.98284 27863 ft 250 kts 270°
2026-05-05 00:55 43.56474 -69.00659 27860 ft 250 kts 270°
2026-05-05 00:55 43.56285 -69.03041 27860 ft 250 kts 270°
2026-05-05 00:55 43.56095 -69.05424 27855 ft 250 kts 270°
2026-05-05 00:55 43.55904 -69.07808 27855 ft 250 kts 270°
2026-05-05 00:56 43.55713 -69.10193 27855 ft 250 kts 270°
2026-05-05 00:56 43.55521 -69.12582 27855 ft 250 kts 270°
2026-05-05 00:56 43.55329 -69.14964 27855 ft 250 kts 270°
2026-05-05 00:56 43.55137 -69.17350 27855 ft 250 kts 270°
2026-05-05 00:57 43.54943 -69.19737 27855 ft 251 kts 270°
2026-05-05 00:57 43.54749 -69.22123 27848 ft 250 kts 270°
2026-05-05 00:57 43.54556 -69.24500 27853 ft 250 kts 270°
2026-05-05 00:57 43.54361 -69.26883 27855 ft 250 kts 270°
2026-05-05 00:58 43.54166 -69.29265 27853 ft 250 kts 270°
2026-05-05 00:58 43.53974 -69.31615 27855 ft 250 kts 270°
2026-05-05 00:58 43.53778 -69.33995 27855 ft 250 kts 270°
2026-05-05 00:58 43.53583 -69.36358 27855 ft 250 kts 270°
2026-05-05 00:59 43.53384 -69.38760 27847 ft 250 kts 270°
2026-05-05 00:59 43.53187 -69.41143 27847 ft 250 kts 270°
2026-05-05 00:59 43.52989 -69.43526 27847 ft 250 kts 270°
2026-05-05 00:59 43.52790 -69.45909 27847 ft 250 kts 270°
2026-05-05 01:00 43.52592 -69.48288 27853 ft 250 kts 269°
2026-05-05 01:00 43.52390 -69.50670 27855 ft 250 kts 270°
2026-05-05 01:00 43.52192 -69.53050 27848 ft 250 kts 270°
2026-05-05 01:00 43.51993 -69.55428 27838 ft 250 kts 270°
2026-05-05 01:01 43.51792 -69.57805 27852 ft 250 kts 270°
2026-05-05 01:01 43.51590 -69.60184 27852 ft 250 kts 269°
2026-05-05 01:01 43.51387 -69.62593 27613 ft 258 kts 269°
2026-05-05 01:01 43.51173 -69.65109 27210 ft 270 kts 268°
2026-05-05 01:02 43.50953 -69.67725 26822 ft 280 kts 268°
2026-05-05 01:02 43.50722 -69.70429 26440 ft 288 kts 267°
2026-05-05 01:02 43.50484 -69.73183 26056 ft 290 kts 267°
2026-05-05 01:02 43.50244 -69.75948 25681 ft 291 kts 266°
2026-05-05 01:03 43.50007 -69.78719 25309 ft 292 kts 266°
2026-05-05 01:03 43.49767 -69.81497 24942 ft 292 kts 266°
2026-05-05 01:03 43.49526 -69.84275 24583 ft 293 kts 266°
2026-05-05 01:03 43.49286 -69.87031 24228 ft 294 kts 265°
2026-05-05 01:04 43.49042 -69.89824 23855 ft 294 kts 265°
2026-05-05 01:04 43.48551 -69.95429 23106 ft 295 kts 265°
2026-05-05 01:04 43.48305 -69.98239 22695 ft 296 kts 265°
2026-05-05 01:05 43.48059 -70.01059 22288 ft 297 kts 265°
2026-05-05 01:05 43.47807 -70.03885 21888 ft 298 kts 265°
2026-05-05 01:05 43.47556 -70.06718 21485 ft 299 kts 265°
2026-05-05 01:05 43.47303 -70.09550 21092 ft 299 kts 264°
2026-05-05 01:06 43.47049 -70.12386 20712 ft 298 kts 264°
2026-05-05 01:06 43.46794 -70.15221 20331 ft 298 kts 264°
2026-05-05 01:06 43.46543 -70.18047 19956 ft 297 kts 264°
2026-05-05 01:06 43.46293 -70.20843 19817 ft 289 kts 264°
2026-05-05 01:07 43.46056 -70.23537 19812 ft 280 kts 264°
2026-05-05 01:07 43.45814 -70.26156 19809 ft 272 kts 264°
2026-05-05 01:07 43.45578 -70.28709 19804 ft 266 kts 264°
2026-05-05 01:07 43.45350 -70.31216 19803 ft 262 kts 264°
2026-05-05 01:08 43.45124 -70.33685 19816 ft 258 kts 264°
2026-05-05 01:08 43.44900 -70.36123 19815 ft 256 kts 264°
2026-05-05 01:08 43.44679 -70.38540 19810 ft 254 kts 264°
2026-05-05 01:08 43.44458 -70.40943 19813 ft 252 kts 264°
2026-05-05 01:09 43.44238 -70.43326 19816 ft 251 kts 264°
2026-05-05 01:09 43.44019 -70.45702 19818 ft 250 kts 264°
2026-05-05 01:09 43.43801 -70.48061 19820 ft 249 kts 264°
2026-05-05 01:09 43.43582 -70.50420 19824 ft 248 kts 264°
2026-05-05 01:10 43.43363 -70.52776 19826 ft 248 kts 264°
2026-05-05 01:10 43.43147 -70.55095 19827 ft 247 kts 264°
2026-05-05 01:10 43.42927 -70.57441 19829 ft 247 kts 264°
2026-05-05 01:10 43.42445 -70.59714 19835 ft 251 kts 247°
2026-05-05 01:11 43.41446 -70.61694 19842 ft 257 kts 231°
2026-05-05 01:11 43.40000 -70.63186 19847 ft 265 kts 214°
2026-05-05 01:11 43.38353 -70.64337 19850 ft 265 kts 213°
2026-05-05 01:11 43.36714 -70.65501 19849 ft 265 kts 214°
2026-05-05 01:12 43.35076 -70.66669 19851 ft 265 kts 214°
2026-05-05 01:12 43.33440 -70.67831 19842 ft 265 kts 213°
2026-05-05 01:12 43.31800 -70.68992 19836 ft 265 kts 213°
2026-05-05 01:12 43.30160 -70.70153 19836 ft 265 kts 213°
2026-05-05 01:13 43.28522 -70.71314 19834 ft 265 kts 213°
2026-05-05 01:13 43.26881 -70.72476 19830 ft 265 kts 213°
2026-05-05 01:13 43.25240 -70.73635 19828 ft 265 kts 213°
2026-05-05 01:13 43.23602 -70.74794 19820 ft 265 kts 213°
2026-05-05 01:14 43.21962 -70.75952 19822 ft 265 kts 213°
2026-05-05 01:14 43.20323 -70.77108 19822 ft 265 kts 213°
2026-05-05 01:14 43.18686 -70.78264 19823 ft 265 kts 213°
2026-05-05 01:14 43.17050 -70.79419 19826 ft 265 kts 213°
2026-05-05 01:15 43.15416 -70.80570 19824 ft 265 kts 213°
2026-05-05 01:15 43.13778 -70.81723 19824 ft 264 kts 213°
2026-05-05 01:15 43.12142 -70.82875 19823 ft 264 kts 213°
2026-05-05 01:15 43.10508 -70.84024 19822 ft 264 kts 213°
2026-05-05 01:16 43.08850 -70.85194 19573 ft 273 kts 213°
2026-05-05 01:16 43.07138 -70.86401 19306 ft 280 kts 213°
2026-05-05 01:16 43.05388 -70.87626 19043 ft 285 kts 213°
2026-05-05 01:16 43.03617 -70.88867 18778 ft 288 kts 213°
2026-05-05 01:17 43.01831 -70.90121 18516 ft 290 kts 213°
2026-05-05 01:17 43.00038 -70.91379 18258 ft 291 kts 213°
2026-05-05 01:17 42.98235 -70.92641 17972 ft 291 kts 212°
2026-05-05 01:17 42.96427 -70.93907 17675 ft 292 kts 212°
2026-05-05 01:18 42.94623 -70.95170 17381 ft 291 kts 212°
2026-05-05 01:18 42.92820 -70.96429 17093 ft 291 kts 212°
2026-05-05 01:18 42.91019 -70.97688 16805 ft 290 kts 212°
2026-05-05 01:18 42.89247 -70.98925 16524 ft 290 kts 212°
2026-05-05 01:19 42.87455 -71.00174 16278 ft 289 kts 212°
2026-05-05 01:19 42.85665 -71.01421 16003 ft 288 kts 212°
2026-05-05 01:19 42.83881 -71.02666 15729 ft 287 kts 212°
2026-05-05 01:19 42.82105 -71.03902 15436 ft 287 kts 212°
2026-05-05 01:20 42.80332 -71.05134 15167 ft 286 kts 212°
2026-05-05 01:20 42.78562 -71.06365 14898 ft 285 kts 212°
2026-05-05 01:20 42.76792 -71.07596 14629 ft 285 kts 212°
2026-05-05 01:20 42.75034 -71.08816 14365 ft 284 kts 212°
2026-05-05 01:21 42.73276 -71.10038 14101 ft 283 kts 212°
2026-05-05 01:21 42.71541 -71.11289 13841 ft 282 kts 213°
2026-05-05 01:21 42.69814 -71.12557 13565 ft 281 kts 213°
2026-05-05 01:21 42.68351 -71.14209 13260 ft 271 kts 236°
2026-05-05 01:22 42.67372 -71.16373 12969 ft 268 kts 244°
2026-05-05 01:22 42.66499 -71.18604 12681 ft 267 kts 245°
2026-05-05 01:22 42.65642 -71.20838 12378 ft 266 kts 245°
2026-05-05 01:22 42.64795 -71.23061 12094 ft 265 kts 245°
2026-05-05 01:23 42.63952 -71.25283 11811 ft 264 kts 246°
2026-05-05 01:23 42.63114 -71.27497 11537 ft 263 kts 246°
2026-05-05 01:23 42.62276 -71.29702 11250 ft 262 kts 246°
2026-05-05 01:23 42.61439 -71.31902 10977 ft 262 kts 246°
2026-05-05 01:24 42.60604 -71.34090 10703 ft 261 kts 246°
2026-05-05 01:24 42.59769 -71.36275 10435 ft 260 kts 246°
2026-05-05 01:24 42.58938 -71.38455 10094 ft 258 kts 246°
2026-05-05 01:24 42.58120 -71.40610 9737 ft 256 kts 246°
2026-05-05 01:25 42.57069 -71.42550 9334 ft 261 kts 225°
2026-05-05 01:25 42.55419 -71.43629 8932 ft 271 kts 197°
2026-05-05 01:25 42.53554 -71.43547 8549 ft 280 kts 170°
2026-05-05 01:25 42.51798 -71.42260 8153 ft 288 kts 142°
2026-05-05 01:26 42.50639 -71.40054 7770 ft 291 kts 114°
2026-05-05 01:26 42.50295 -71.37378 7386 ft 290 kts 86°
2026-05-05 01:26 42.50801 -71.34877 7022 ft 284 kts 59°
2026-05-05 01:26 42.51922 -71.32712 6656 ft 279 kts 46°
2026-05-05 01:27 42.53251 -71.30837 6293 ft 274 kts 38°
2026-05-05 01:27 42.54667 -71.29132 5911 ft 270 kts 37°
2026-05-05 01:27 42.56075 -71.27464 5528 ft 268 kts 36°
2026-05-05 01:27 42.57462 -71.25842 5155 ft 266 kts 36°
2026-05-05 01:28 42.58868 -71.24224 4773 ft 265 kts 36°
2026-05-05 01:28 42.60265 -71.22609 4388 ft 265 kts 41°
2026-05-05 01:28 42.61238 -71.20496 3991 ft 267 kts 72°
2026-05-05 01:28 42.61353 -71.18030 3593 ft 260 kts 104°
2026-05-05 01:29 42.60618 -71.15875 3213 ft 247 kts 136°
2026-05-05 01:29 42.59284 -71.14636 3032 ft 221 kts 169°
2026-05-05 01:29 42.57865 -71.14671 3024 ft 196 kts 204°
2026-05-05 01:29 42.56842 -71.15747 3021 ft 179 kts 237°
2026-05-05 01:30 42.56388 -71.17070 3020 ft 134 kts 246°
2026-05-05 01:30 42.56073 -71.18108 3019 ft 111 kts 244°
2026-05-05 01:30 42.55791 -71.19052 3014 ft 105 kts 245°
2026-05-05 01:30 42.55419 -71.19897 2833 ft 101 kts 229°
2026-05-05 01:31 42.54929 -71.20598 2561 ft 96 kts 227°
2026-05-05 01:31 42.54501 -71.21084 2378 ft 72 kts 224°
2026-05-05 01:31 42.54163 -71.21538 2233 ft 66 kts 229°
2026-05-05 01:31 42.53844 -71.21970 2106 ft 64 kts 223°
2026-05-05 01:32 42.53502 -71.22351 1950 ft 64 kts 221°
2026-05-05 01:32 42.53158 -71.22715 1782 ft 61 kts 220°
2026-05-05 01:32 42.52821 -71.23064 1610 ft 60 kts 220°
2026-05-05 01:32 42.52490 -71.23409 1474 ft 62 kts 218°
2026-05-05 01:33 42.52134 -71.23783 1345 ft 67 kts 219°
2026-05-05 01:33 42.51752 -71.24172 1226 ft 68 kts 217°
2026-05-05 01:33 42.51354 -71.24556 1080 ft 72 kts 217°
2026-05-05 01:33 42.50933 -71.24960 988 ft 79 kts 221°
2026-05-05 01:34 42.50476 -71.25493 890 ft 93 kts 217°
2026-05-05 01:34 42.49938 -71.26029 820 ft 98 kts 214°
2026-05-05 01:34 42.49394 -71.26590 676 ft 99 kts 217°
2026-05-05 01:34 42.48848 -71.27156 536 ft 98 kts 215°
2026-05-05 01:35 42.48287 -71.27694 450 ft 97 kts 212°
2026-05-05 01:35 42.47740 -71.28258 291 ft 101 kts 219°
2026-05-05 01:35 42.47199 -71.28808 150 ft 88 kts 217°
2026-05-05 01:35 42.46820 -71.29192 133 ft 41 kts 217°
2026-05-05 01:36 42.46689 -71.29329 132 ft 23 kts 221°
2026-05-05 01:36 42.46534 -71.29490 129 ft 33 kts 217°
2026-05-05 01:36 42.46378 -71.29642 128 ft 13 kts 195°
2026-05-05 01:36 42.46318 -71.29613 129 ft 10 kts 136°
2026-05-05 01:37 42.46306 -71.29593 131 ft 0 kts 127°
2026-05-05 01:37 42.46306 -71.29592 131 ft 2 kts 126°
2026-05-05 01:37 42.46281 -71.29547 131 ft 5 kts 127°
2026-05-05 01:38 42.46267 -71.29522 132 ft 2 kts 126°
2026-05-05 01:38 42.46249 -71.29488 133 ft 8 kts 126°
2026-05-05 01:38 42.46276 -71.29398 132 ft 18 kts 37°
2026-05-05 01:38 42.46390 -71.29280 133 ft 19 kts 37°
2026-05-05 01:39 42.46477 -71.29191 134 ft 13 kts 37°
2026-05-05 01:39 42.46539 -71.29130 134 ft 9 kts 36°
2026-05-05 01:39 42.46576 -71.29090 135 ft 6 kts 38°
2026-05-05 01:39 42.46613 -71.29053 135 ft 7 kts 36°
2026-05-05 01:40 42.46669 -71.28996 135 ft 14 kts 36°
2026-05-05 01:40 42.46759 -71.28904 134 ft 15 kts 37°
2026-05-05 01:40 42.46830 -71.28821 133 ft 13 kts 57°
2026-05-05 01:40 42.46842 -71.28697 133 ft 13 kts 96°
2026-05-05 01:41 42.46830 -71.28581 134 ft 11 kts 102°
2026-05-05 01:41 42.46826 -71.28569 134 ft 1 kts 133°
2026-05-05 01:41 42.46768 -71.28553 133 ft 6 kts 175°
2026-05-05 01:41 42.46744 -71.28545 133 ft 6 kts 152°
2026-05-05 01:42 42.46679 -71.28506 133 ft 11 kts 161°
2026-05-05 01:42 42.46628 -71.28477 134 ft 6 kts 158°
2026-05-05 01:42 42.46590 -71.28475 134 ft 5 kts 205°
2026-05-05 01:42 42.46563 -71.28511 134 ft 6 kts 245°
2026-05-05 01:43 42.46559 -71.28639 133 ft 14 kts 273°
2026-05-05 01:43 42.46565 -71.28737 133 ft 17 kts 271°
2026-05-05 01:43 42.46564 -71.28774 134 ft 0 kts 266°